This demonstration page uses our WeatherBlox Daily Observations layout. Learn more.

Left ArrowRight Arrow

Hourly Observations for January 20, 2020

Temp ( °F °C ) Dew Point ( °F °C ) Humidity (%) Winds ( mph kmh ) Pressure ( in mb ) Visibility ( mi km ) Precip ( " mm )
12:53 am 00:53 Clear 11 -11.7 5 -15 77 77 E 5 7 30.64 1038 10 16 0.00 0.00
1:53 am 01:53 Clear 10 -12.2 5 -15 80 80 ESE 5 7 30.63 1037 10 16 0.00 0.00
2:53 am 02:53 Clear 7 -13.9 3 -16.1 84 84 ENE 6 9 30.64 1038 10 16 0.00 0.00
3:53 am 03:53 Clear 7 -13.9 2 -16.7 80 80 E 7 11 30.64 1038 10 16 0.00 0.00
4:53 am 04:53 Clear 6 -14.4 1 -17.2 79 79 ENE 6 9 30.64 1038 10 16 0.00 0.00
5:53 am 05:53 Clear 5 -15 0 -17.8 79 79 E 5 7 30.65 1038 10 16 0.00 0.00
6:53 am 06:53 Clear 4 -15.6 -1 -18.3 80 80 ENE 6 9 30.68 1039 10 16 0.00 0.00
7:53 am 07:53 Sunny 4 -15.6 -2 -18.9 76 76 NE 6 9 30.71 1040 10 16 0.00 0.00
8:53 am 08:53 Sunny 6 -14.4 -1 -18.3 73 73 ENE 8 13 30.72 1040 10 16 0.00 0.00
9:53 am 09:53 Sunny 9 -12.8 -1 -18.3 64 64 NE 7 11 30.71 1040 10 16 0.00 0.00
10:53 am 10:53 Sunny 10 -12.2 1 -17.2 67 67 E 5 7 30.73 1041 10 16 0.00 0.00
11:53 am 11:53 Sunny 12 -11.1 1 -17.2 61 61 NNE 6 9 30.72 1040 10 16 0.00 0.00
12:53 pm 12:53 Sunny 13 -10.6 3 -16.1 64 64 ENE 7 11 30.71 1040 10 16 0.00 0.00
1:53 pm 13:53 Sunny 15 -9.4 5 -15 64 64 NE 6 9 30.68 1039 10 16 0.00 0.00
2:53 pm 14:53 Sunny 15 -9.4 4 -15.6 61 61 E 7 11 30.66 1038 10 16 0.00 0.00
3:53 pm 15:53 Sunny 15 -9.4 4 -15.6 61 61 NE 5 7 30.67 1039 10 16 0.00 0.00
4:53 pm 16:53 Sunny 14 -10 3 -16.1 61 61 ENE 6 9 30.68 1039 10 16 0.00 0.00
5:53 pm 17:53 Clear 11 -11.7 2 -16.7 67 67 E 6 9 30.68 1039 10 16 0.00 0.00
6:53 pm 18:53 Clear 9 -12.8 2 -16.7 73 73 E 5 7 30.68 1039 10 16 0.00 0.00
7:53 pm 19:53 Clear 8 -13.3 2 -16.7 76 76 E 3 6 30.68 1039 10 16 0.00 0.00
8:53 pm 20:53 Clear 8 -13.3 2 -16.7 76 76 SSE 5 7 30.68 1039 10 16 0.00 0.00
9:53 pm 21:53 Clear 7 -13.9 2 -16.7 80 80 SE 7 11 30.66 1038 10 16 0.00 0.00
10:53 pm 22:53 Clear 6 -14.4 2 -16.7 83 83 SSE 6 9 30.65 1038 10 16 0.00 0.00
11:53 pm 23:53 Clear 5 -15 1 -17.2 83 83 S 6 9 30.63 1037 10 16 0.00 0.00

Powered by AerisWeather